Regional Weather Roundup
Issued by NWS

Home | Current Version | Previous Version | Text Only | Print | Product List | Glossary Off
Versions: 1 2 3 4 5 6 7 8 9 10 11 12 13 14 15 16 17 18 19 20 21 22 23 24 25 26 27 28 29 30 31 32 33 34 35 36 37 38 39 40 41 42 43 44 45 46 47 48 49 50

000
ASUS45 KABQ 262210
RWRNM
WEATHER ROUNDUP FOR NEW MEXICO
NATIONAL WEATHER SERVICE ALBUQUERQUE NM
300 PM MST MON JAN 26 2015

NOTE: "FAIR" MEANS FEW OR NO CLOUDS BELOW 12,000 FEET AGL WITH NO
       SIGNIFICANT WEATHER OR OBSTRUCTIONS TO VISION.

      THIS PRODUCT IS RELEASED AS TWO VERSIONS.  ONE VERSION NEAR
      THE TOP OF THE HOUR CONTAINING PRELIMINARY DATA FROM ALBUQUERQUE
      AND OTHER STATIONS.  A FINAL VERSION WITH ADDITIONAL DATA IS
      ISSUED ABOUT 10 MINUTES AFTER THE HOUR.

NMZ501-503-504-510>518-262300-
NORTHWEST PLATEAU/NORTHCENTRAL MOUNTAINS

CITY           SKY/WX    TMP DP  RH WIND       PRES   REMARKS
FARMINGTON     SUNNY     57  26  30 W6        30.28S
LOS ALAMOS     SUNNY     54  26  33 E5        30.37R
SANTA FE       SUNNY     60  21  22 CALM      30.32R
TAOS           SUNNY     54  27  35 N13       30.34F
ANGEL FIRE     FAIR      50  27  42 N5        30.40S

$$
NMZ402-403-502-505>509-262300-
WESTCENTRAL MOUNTAINS/SOUTHWEST MOUNTAINS

CITY           SKY/WX    TMP DP  RH WIND       PRES   REMARKS
GALLUP         MOSUNNY   57  27  31 NW6       30.30S
GRANTS         MOSUNNY   57  24  28 SE10G18   30.34S
SILVER CITY    CLOUDY    57  19  23 S13       30.29S

$$
NMZ407-409-411-412-262300-
SOUTHERN DESERTS

CITY           SKY/WX    TMP DP  RH WIND       PRES   REMARKS
LORDSBURG      FAIR      61  27  27 SE15G21   30.24R
DEMING         CLOUDY    59  28  30 E12       30.26F
LAS CRUCES     CLOUDY    56  28  33 SE6       30.28S
HOLLOMAN AFB   CLOUDY    57  29  34 N3        30.26F
ALAMOGORDO     CLOUDY    59  27  29 N8        30.27F
T OR C         PTSUNNY   57  26  30 SE5       30.27S

$$
NMZ519>523-262300-
CENTRAL VALLEYS/CENTRAL HIGHLANDS

CITY           SKY/WX    TMP DP  RH WIND       PRES   REMARKS
ALBUQUERQUE    PTSUNNY   56  26  31 VRB3      30.32F
DOUBLE EAGLE   MOSUNNY   57  27  30 VRB5      30.33F
MORIARTY ARPT  FAIR      60  26  28 S9        30.34S
CLINES CORNERS MOSUNNY   52  24  33 E9        30.34S
BELEN          FAIR      55  28  35 E3        30.32S
SOCORRO        FAIR      59  26  28 NW3       30.29S

$$
NMZ524>526-539-540-262300-
SOUTHCENTRAL MOUNTAINS

CITY           SKY/WX    TMP DP  RH WIND       PRES   REMARKS
RUIDOSO        MOSUNNY   55  18  22 N5        30.35S

$$
NMZ527>531-262300-
NORTHEAST HIGHLANDS/NORTHEAST PLAINS

CITY           SKY/WX    TMP DP  RH WIND       PRES   REMARKS
LAS VEGAS      SUNNY     56  27  32 E7        30.35S
RATON          SUNNY     59  28  30 SW8       30.31S
CLAYTON        SUNNY     66  29  24 NW8       30.26S

$$
NMZ532>537-262300-
EASTCENTRAL PLAINS

CITY           SKY/WX    TMP DP  RH WIND       PRES   REMARKS
TUCUMCARI      SUNNY     67  31  26 VRB3      30.23S
CANNON AFB     SUNNY     65  33  30 N7        30.24F
CLOVIS AIRPORT SUNNY     66  36  32 CALM      30.24S

$$
NMZ028-029-538-262300-
SOUTHEAST PLAINS

CITY           SKY/WX    TMP DP  RH WIND       PRES   REMARKS
ROSWELL        MOSUNNY   63  33  32 VRB3      30.24S
ARTESIA        PTSUNNY   61  32  33 CALM      30.25S
CARLSBAD       PTSUNNY   66  27  23 N5        30.22F
HOBBS          SUNNY     66  23  19 CALM      30.24S


$$


USA.gov is the U.S. government's official web portal to all federal, state and local government web resources and services.